Regional Weather Roundup
Issued by NWS

Home | Current Version | Previous Version | Graphics & Text | Print | Product List | Glossary On
Versions: 1 2 3 4 5 6 7 8 9 10 11 12 13 14 15 16 17 18 19 20 21 22 23 24 25 26 27 28 29 30 31 32 33 34 35 36 37 38 39 40 41 42 43 44 45 46 47 48 49 50
000
ASUS43 KLMK 230402
RWRKY
KENTUCKY REGIONAL WEATHER ROUNDUP
NATIONAL WEATHER SERVICE LOUISVILLE KY
1200 AM EDT SAT MAY 23 2015

NOTE "FAIR" INDICATES FEW OR NO CLOUDS BELOW 12,000 FEET
WITH NO SIGNIFICANT WEATHER AND/OR OBSTRUCTIONS TO VISIBILITY.

KYZ001>023-026-027-061>063-070>075-230500-
WESTERN AND SOUTH CENTRAL KENTUCKY

CITY           SKY/WX    TMP DP  RH WIND       PRES   REMARKS
PADUCAH        MOCLDY    59  55  87 CALM      30.27S
HENDERSON      MOCLDY    61  54  77 CALM      30.28R
OWENSBORO      PTCLDY    64  54  70 CALM      30.29R
HOPKINSVILLE   MOCLDY    62  52  71 N1        30.28R
BOWLING GREEN  MOCLDY    59  51  75 CALM      30.29F
GLASGOW        NOT AVBL
$$

KYZ024-025-028>034-038-045-046-053-230500-
NORTH CENTRAL KENTUCKY

CITY           SKY/WX    TMP DP  RH WIND       PRES   REMARKS
LOUISVILLE/SDF CLOUDY    66  48  52 CALM      30.29R
LOUISVILLE/LOU PTCLDY    62  50  64 CALM      30.30R
FORT KNOX      MOCLDY    55  50  83 CALM      30.28S
$$

KYZ035>037-039>044-047>052-055>060-089>105-230500-
NORTHEAST KENTUCKY

CITY           SKY/WX    TMP DP  RH WIND       PRES   REMARKS
LEXINGTON      MOCLDY    58  47  66 SW6       30.31R
COVINGTON      CLEAR     58  47  66 CALM      30.29R
FRANKFORT      PTCLDY    57  48  72 CALM      30.29R
$$

KYZ054-064>069-076>088-106>120-230500-
SOUTHEAST KENTUCKY

CITY           SKY/WX    TMP DP  RH WIND       PRES   REMARKS
JACKSON        MOCLDY    58  45  62 CALM      30.32R
LONDON         MOCLDY    54  45  71 CALM      30.33R
SOMERSET       NOT AVBL
MIDDLESBORO    PTCLDY    51  47  87 CALM      30.35R
MONTICELLO     MOCLDY    52  50  93 CALM      30.35R
$$



USA.gov is the U.S. government's official web portal to all federal, state and local government web resources and services.